Location: Eaton Estates
(41.3089°N, 82.0057°W)
Time: 23:26:19
(UTC+00:00)

AO-109 - Visible Passes

Search period start: 22 March 2023 00:00
Search period end: 01 April 2023 00:00
Orbit: 443 x 485 km, 60.7° (Epoch: 22 March)

Date Brightness Start Highest point End Pass type
(mag) Time Alt. Az. Time Alt. Az. Time Alt. Az.
29 Mar ? 02:44:58 10° NNW 02:45:11 11° NNW 02:45:11 11° NNW visible
30 Mar ? 02:12:11 10° NNW 02:13:21 17° N 02:13:21 17° N visible
31 Mar ? 01:39:24 10° N 01:41:30 19° NNE 01:41:30 19° NNE visible
